Year,Month,Day,Hour,Minute,Value (Times are PST for temperature in C)
2013,11,25,00,00,3.80
2013,11,25,00,01,3.80
2013,11,25,00,02,3.80
2013,11,25,00,03,3.80
2013,11,25,00,04,3.80
2013,11,25,00,05,3.70
2013,11,25,00,06,3.70
2013,11,25,00,07,3.70
2013,11,25,00,08,3.70
2013,11,25,00,09,3.70
2013,11,25,00,10,3.70
2013,11,25,00,11,3.70
2013,11,25,00,12,3.70
2013,11,25,00,13,3.70
2013,11,25,00,14,3.70
2013,11,25,00,15,3.70
2013,11,25,00,16,3.60
2013,11,25,00,17,3.70
2013,11,25,00,18,3.60
2013,11,25,00,19,3.60
2013,11,25,00,20,3.70
2013,11,25,00,21,3.70
2013,11,25,00,22,3.70
2013,11,25,00,23,3.70
2013,11,25,00,24,3.60
2013,11,25,00,25,3.70
2013,11,25,00,26,3.70
2013,11,25,00,27,3.70
2013,11,25,00,28,3.60
2013,11,25,00,29,3.70
2013,11,25,00,30,3.60
2013,11,25,00,31,3.60
2013,11,25,00,32,3.70
2013,11,25,00,33,3.70
2013,11,25,00,34,3.70
2013,11,25,00,35,3.70
2013,11,25,00,36,3.70
2013,11,25,00,37,3.70
2013,11,25,00,38,3.70
2013,11,25,00,39,3.60
2013,11,25,00,40,3.60
2013,11,25,00,41,3.60
2013,11,25,00,42,3.60
2013,11,25,00,43,3.60
2013,11,25,00,44,3.60
2013,11,25,00,45,3.60
2013,11,25,00,46,3.60
2013,11,25,00,47,3.60
2013,11,25,00,48,3.60
2013,11,25,00,49,3.60
2013,11,25,00,50,3.60
2013,11,25,00,51,3.60
2013,11,25,00,52,3.60
2013,11,25,00,53,3.60
2013,11,25,00,54,3.60
2013,11,25,00,55,3.60
2013,11,25,00,56,3.60
2013,11,25,00,57,3.60
2013,11,25,00,58,3.60
2013,11,25,00,59,3.60
2013,11,25,01,00,3.60
2013,11,25,01,01,3.70
2013,11,25,01,02,3.70
2013,11,25,01,03,3.70
2013,11,25,01,04,3.70
2013,11,25,01,05,3.70
2013,11,25,01,06,3.80
2013,11,25,01,07,3.80
2013,11,25,01,08,3.80
2013,11,25,01,09,3.80
2013,11,25,01,10,3.80
2013,11,25,01,11,3.80
2013,11,25,01,12,3.80
2013,11,25,01,13,3.80
2013,11,25,01,14,3.80
2013,11,25,01,15,3.90
2013,11,25,01,16,3.90
2013,11,25,01,17,3.90
2013,11,25,01,18,3.90
2013,11,25,01,19,4.00
2013,11,25,01,20,4.00
2013,11,25,01,21,4.00
2013,11,25,01,22,4.00
2013,11,25,01,23,4.10
2013,11,25,01,24,4.10
2013,11,25,01,25,4.10
2013,11,25,01,26,4.10
2013,11,25,01,27,4.10
2013,11,25,01,28,4.10
2013,11,25,01,29,4.10
2013,11,25,01,30,4.00
2013,11,25,01,31,4.00
2013,11,25,01,32,4.00
2013,11,25,01,33,4.00
2013,11,25,01,34,4.00
2013,11,25,01,35,4.00
2013,11,25,01,36,4.00
2013,11,25,01,37,4.00
2013,11,25,01,38,4.00
2013,11,25,01,39,4.00
2013,11,25,01,40,4.00
2013,11,25,01,41,4.00
2013,11,25,01,42,4.00
2013,11,25,01,43,4.00
2013,11,25,01,44,4.00
2013,11,25,01,45,3.90
2013,11,25,01,46,3.90
2013,11,25,01,47,3.90
2013,11,25,01,48,3.90
2013,11,25,01,49,3.90
2013,11,25,01,50,3.90
2013,11,25,01,51,3.90
2013,11,25,01,52,3.90
2013,11,25,01,53,3.90
2013,11,25,01,54,3.80
2013,11,25,01,55,3.80
2013,11,25,01,56,3.80
2013,11,25,01,57,3.80
2013,11,25,01,58,3.80
2013,11,25,01,59,3.80
2013,11,25,02,00,3.90
2013,11,25,02,01,3.90
2013,11,25,02,02,3.90
2013,11,25,02,03,3.90
2013,11,25,02,04,3.90
2013,11,25,02,05,3.90
2013,11,25,02,06,4.00
2013,11,25,02,07,4.00
2013,11,25,02,08,4.10
2013,11,25,02,09,4.10
2013,11,25,02,10,4.20
2013,11,25,02,11,4.20
2013,11,25,02,12,4.20
2013,11,25,02,13,4.20
2013,11,25,02,14,4.30
2013,11,25,02,15,4.30
2013,11,25,02,16,4.30
2013,11,25,02,17,4.30
2013,11,25,02,18,4.30
2013,11,25,02,19,4.20
2013,11,25,02,20,4.20
2013,11,25,02,21,4.20
2013,11,25,02,22,4.20
2013,11,25,02,23,4.20
2013,11,25,02,24,4.20
2013,11,25,02,25,4.20
2013,11,25,02,26,4.30
2013,11,25,02,27,4.30
2013,11,25,02,28,4.30
2013,11,25,02,29,4.30
2013,11,25,02,30,4.20
2013,11,25,02,31,4.20
2013,11,25,02,32,4.20
2013,11,25,02,33,4.20
2013,11,25,02,34,4.20
2013,11,25,02,35,4.20
2013,11,25,02,36,4.20
2013,11,25,02,37,4.20
2013,11,25,02,38,4.20
2013,11,25,02,39,4.20
2013,11,25,02,40,4.20
2013,11,25,02,41,4.20
2013,11,25,02,42,4.20
2013,11,25,02,43,4.20
2013,11,25,02,44,4.20
2013,11,25,02,45,4.20
2013,11,25,02,46,4.20
2013,11,25,02,47,4.20
2013,11,25,02,48,4.20
2013,11,25,02,49,4.20
2013,11,25,02,50,4.20
2013,11,25,02,51,4.20
2013,11,25,02,52,4.20
2013,11,25,02,53,4.20
2013,11,25,02,54,4.20
2013,11,25,02,55,4.20
2013,11,25,02,56,4.10
2013,11,25,02,57,4.10
2013,11,25,02,58,4.10
2013,11,25,02,59,4.10
2013,11,25,03,00,4.10
2013,11,25,03,01,4.10
2013,11,25,03,02,4.10
2013,11,25,03,03,4.10
2013,11,25,03,04,4.10
2013,11,25,03,05,4.10
2013,11,25,03,06,4.10
2013,11,25,03,07,4.10
2013,11,25,03,08,4.10
2013,11,25,03,09,4.10
2013,11,25,03,10,4.10
2013,11,25,03,11,4.10
2013,11,25,03,12,4.10
2013,11,25,03,13,4.10
2013,11,25,03,14,4.10
2013,11,25,03,15,4.10
2013,11,25,03,16,4.10
2013,11,25,03,17,4.10
2013,11,25,03,18,4.10
2013,11,25,03,19,4.10
2013,11,25,03,20,4.10
2013,11,25,03,21,4.10
2013,11,25,03,22,4.10
2013,11,25,03,23,4.20
2013,11,25,03,24,4.20
2013,11,25,03,25,4.20
2013,11,25,03,26,4.20
2013,11,25,03,27,4.20
2013,11,25,03,28,4.20
2013,11,25,03,29,4.20
2013,11,25,03,30,4.20
2013,11,25,03,31,4.20
2013,11,25,03,32,4.20
2013,11,25,03,33,4.20
2013,11,25,03,34,4.20
2013,11,25,03,35,4.20
2013,11,25,03,36,4.20
2013,11,25,03,37,4.20
2013,11,25,03,38,4.20
2013,11,25,03,39,4.20
2013,11,25,03,40,4.20
2013,11,25,03,41,4.20
2013,11,25,03,42,4.20
2013,11,25,03,43,4.20
2013,11,25,03,44,4.20
2013,11,25,03,45,4.20
2013,11,25,03,46,4.20
2013,11,25,03,47,4.20
2013,11,25,03,48,4.20
2013,11,25,03,49,4.10
2013,11,25,03,50,4.10
2013,11,25,03,51,4.10
2013,11,25,03,52,4.10
2013,11,25,03,53,4.10
2013,11,25,03,54,4.10
2013,11,25,03,55,4.10
2013,11,25,03,56,4.10
2013,11,25,03,57,4.10
2013,11,25,03,58,4.10
2013,11,25,03,59,4.10
2013,11,25,04,00,4.10
2013,11,25,04,01,4.00
2013,11,25,04,02,4.10
2013,11,25,04,03,4.00
2013,11,25,04,04,4.00
2013,11,25,04,05,4.00
2013,11,25,04,06,4.00
2013,11,25,04,07,4.00
2013,11,25,04,08,3.90
2013,11,25,04,09,3.90
2013,11,25,04,10,3.90
2013,11,25,04,11,3.90
2013,11,25,04,12,3.90
2013,11,25,04,13,3.90
2013,11,25,04,14,3.90
2013,11,25,04,15,3.90
2013,11,25,04,16,3.90
2013,11,25,04,17,3.90
2013,11,25,04,18,3.90
2013,11,25,04,19,3.90
2013,11,25,04,20,3.90
2013,11,25,04,21,3.90
2013,11,25,04,22,3.90
2013,11,25,04,23,3.90
2013,11,25,04,24,3.90
2013,11,25,04,25,3.90
2013,11,25,04,26,4.00
2013,11,25,04,27,4.00
2013,11,25,04,28,4.00
2013,11,25,04,29,4.00
2013,11,25,04,30,4.00
2013,11,25,04,31,4.00
2013,11,25,04,32,4.00
2013,11,25,04,33,4.00
2013,11,25,04,34,4.00
2013,11,25,04,35,4.00
2013,11,25,04,36,4.00
2013,11,25,04,37,4.00
2013,11,25,04,38,4.00
2013,11,25,04,39,4.00
2013,11,25,04,40,4.00
2013,11,25,04,41,4.10
2013,11,25,04,42,4.10
2013,11,25,04,43,4.10
2013,11,25,04,44,4.20
2013,11,25,04,45,4.20
2013,11,25,04,46,4.20
2013,11,25,04,47,4.20
2013,11,25,04,48,4.20
2013,11,25,04,49,4.20
2013,11,25,04,50,4.20
2013,11,25,04,51,4.20
2013,11,25,04,52,4.10
2013,11,25,04,53,4.10
2013,11,25,04,54,4.10
2013,11,25,04,55,4.10
2013,11,25,04,56,4.10
2013,11,25,04,57,4.10
2013,11,25,04,58,4.10
2013,11,25,04,59,4.10
2013,11,25,05,00,4.00
2013,11,25,05,01,4.00
2013,11,25,05,02,4.00
2013,11,25,05,03,4.00
2013,11,25,05,04,4.00
2013,11,25,05,05,4.00
2013,11,25,05,06,4.00
2013,11,25,05,07,4.00
2013,11,25,05,08,4.00
2013,11,25,05,09,4.00
2013,11,25,05,10,4.00
2013,11,25,05,11,4.00
2013,11,25,05,12,4.00
2013,11,25,05,13,3.90
2013,11,25,05,14,3.90
2013,11,25,05,15,3.90
2013,11,25,05,16,3.90
2013,11,25,05,17,3.90
2013,11,25,05,18,3.90
2013,11,25,05,19,3.90
2013,11,25,05,20,3.90
2013,11,25,05,21,3.90
2013,11,25,05,22,3.90
2013,11,25,05,23,3.90
2013,11,25,05,24,3.90
2013,11,25,05,25,3.90
2013,11,25,05,26,3.90
2013,11,25,05,27,3.80
2013,11,25,05,28,3.80
2013,11,25,05,29,3.80
2013,11,25,05,30,3.80
2013,11,25,05,31,3.80
2013,11,25,05,32,3.80
2013,11,25,05,33,3.80
2013,11,25,05,34,3.70
2013,11,25,05,35,3.70
2013,11,25,05,36,3.70
2013,11,25,05,37,3.70
2013,11,25,05,38,3.70
2013,11,25,05,39,3.70
2013,11,25,05,40,3.70
2013,11,25,05,41,3.60
2013,11,25,05,42,3.60
2013,11,25,05,43,3.60
2013,11,25,05,44,3.60
2013,11,25,05,45,3.60
2013,11,25,05,46,3.50
2013,11,25,05,47,3.50
2013,11,25,05,48,3.50
2013,11,25,05,49,3.50
2013,11,25,05,50,3.50
2013,11,25,05,51,3.50
2013,11,25,05,52,3.40
2013,11,25,05,53,3.50
2013,11,25,05,54,3.40
2013,11,25,05,55,3.40
2013,11,25,05,56,3.40
2013,11,25,05,57,3.40
2013,11,25,05,58,3.40
2013,11,25,05,59,3.40
2013,11,25,06,00,3.40
2013,11,25,06,01,3.40
2013,11,25,06,02,3.30
2013,11,25,06,03,3.30
2013,11,25,06,04,3.30
2013,11,25,06,05,3.30
2013,11,25,06,06,3.30
2013,11,25,06,07,3.30
2013,11,25,06,08,3.30
2013,11,25,06,09,3.30
2013,11,25,06,10,3.30
2013,11,25,06,11,3.20
2013,11,25,06,12,3.20
2013,11,25,06,13,3.20
2013,11,25,06,14,3.20
2013,11,25,06,15,3.20
2013,11,25,06,16,3.30
2013,11,25,06,17,3.30
2013,11,25,06,18,3.20
2013,11,25,06,19,3.20
2013,11,25,06,20,3.20
2013,11,25,06,21,3.20
2013,11,25,06,22,3.20
2013,11,25,06,23,3.20
2013,11,25,06,24,3.20
2013,11,25,06,25,3.20
2013,11,25,06,26,3.20
2013,11,25,06,27,3.20
2013,11,25,06,28,3.20
2013,11,25,06,29,3.20
2013,11,25,06,30,3.20
2013,11,25,06,31,3.20
2013,11,25,06,32,3.20
2013,11,25,06,33,3.20
2013,11,25,06,34,3.20
2013,11,25,06,35,3.20
2013,11,25,06,36,3.20
2013,11,25,06,37,3.20
2013,11,25,06,38,3.10
2013,11,25,06,39,3.10
2013,11,25,06,40,3.10
2013,11,25,06,41,3.10
2013,11,25,06,42,3.10
2013,11,25,06,43,3.10
2013,11,25,06,44,3.10
2013,11,25,06,45,3.10
2013,11,25,06,46,3.10
2013,11,25,06,47,3.10
2013,11,25,06,48,3.10
2013,11,25,06,49,3.10
2013,11,25,06,50,3.10
2013,11,25,06,51,3.10
2013,11,25,06,52,3.10
2013,11,25,06,53,3.10
2013,11,25,06,54,3.10
2013,11,25,06,55,3.00
2013,11,25,06,56,3.00
2013,11,25,06,57,3.10
2013,11,25,06,58,3.10
2013,11,25,06,59,3.10
2013,11,25,07,00,3.10
2013,11,25,07,01,3.10
2013,11,25,07,02,3.10
2013,11,25,07,03,3.10
2013,11,25,07,04,3.10
2013,11,25,07,05,3.10
2013,11,25,07,06,3.10
2013,11,25,07,07,3.10
2013,11,25,07,08,3.10
2013,11,25,07,09,3.10
2013,11,25,07,10,3.10
2013,11,25,07,11,3.10
2013,11,25,07,12,3.10
2013,11,25,07,13,3.10
2013,11,25,07,14,3.10
2013,11,25,07,15,3.10
2013,11,25,07,16,3.10
2013,11,25,07,17,3.10
2013,11,25,07,18,3.10
2013,11,25,07,19,3.10
2013,11,25,07,20,3.10
2013,11,25,07,21,3.10
2013,11,25,07,22,3.10
2013,11,25,07,23,3.10
2013,11,25,07,24,3.00
2013,11,25,07,25,3.00
2013,11,25,07,26,3.00
2013,11,25,07,27,3.00
2013,11,25,07,28,2.90
2013,11,25,07,29,2.90
2013,11,25,07,30,2.90
2013,11,25,07,31,2.90
2013,11,25,07,32,2.90
2013,11,25,07,33,2.90
2013,11,25,07,34,2.90
2013,11,25,07,35,2.90
2013,11,25,07,36,2.90
2013,11,25,07,37,2.90
2013,11,25,07,38,2.90
2013,11,25,07,39,2.90
2013,11,25,07,40,2.90
2013,11,25,07,41,2.90
2013,11,25,07,42,2.90
2013,11,25,07,43,2.90
2013,11,25,07,44,2.90
2013,11,25,07,45,2.90
2013,11,25,07,46,2.80
2013,11,25,07,47,2.80
2013,11,25,07,48,2.80
2013,11,25,07,49,2.80
2013,11,25,07,50,2.80
2013,11,25,07,51,2.80
2013,11,25,07,52,2.80
2013,11,25,07,53,2.80
2013,11,25,07,54,2.80
2013,11,25,07,55,2.80
2013,11,25,07,56,2.80
2013,11,25,07,57,2.80
2013,11,25,07,58,2.80
2013,11,25,07,59,2.80
2013,11,25,08,00,2.80
2013,11,25,08,01,2.80
2013,11,25,08,02,2.80
2013,11,25,08,03,2.80
2013,11,25,08,04,2.80
2013,11,25,08,05,2.80
2013,11,25,08,06,2.80
2013,11,25,08,07,2.80
2013,11,25,08,08,2.80
2013,11,25,08,09,2.80
2013,11,25,08,10,2.90
2013,11,25,08,11,2.90
2013,11,25,08,12,2.90
2013,11,25,08,13,2.90
2013,11,25,08,14,2.90
2013,11,25,08,15,2.90
2013,11,25,08,16,2.90
2013,11,25,08,17,2.90
2013,11,25,08,18,2.90
2013,11,25,08,19,3.00
2013,11,25,08,20,3.00
2013,11,25,08,21,3.10
2013,11,25,08,22,3.10
2013,11,25,08,23,3.20
2013,11,25,08,24,3.20
2013,11,25,08,25,3.30
2013,11,25,08,26,3.30
2013,11,25,08,27,3.40
2013,11,25,08,28,3.40
2013,11,25,08,29,3.50
2013,11,25,08,30,3.50
2013,11,25,08,31,3.60
2013,11,25,08,32,3.60
2013,11,25,08,33,3.70
2013,11,25,08,34,3.70
2013,11,25,08,35,3.80
2013,11,25,08,36,3.80
2013,11,25,08,37,3.80
2013,11,25,08,38,3.90
2013,11,25,08,39,3.90
2013,11,25,08,40,3.90
2013,11,25,08,41,3.90
2013,11,25,08,42,3.90
2013,11,25,08,43,4.00
2013,11,25,08,44,4.00
2013,11,25,08,45,4.00
2013,11,25,08,46,4.00
2013,11,25,08,47,4.00
2013,11,25,08,48,4.00
2013,11,25,08,49,4.10
2013,11,25,08,50,4.10
2013,11,25,08,51,4.10
2013,11,25,08,52,4.10
2013,11,25,08,53,4.10
2013,11,25,08,54,4.10
2013,11,25,08,55,4.10
2013,11,25,08,56,4.20
2013,11,25,08,57,4.20
2013,11,25,08,58,4.20
2013,11,25,08,59,4.20
2013,11,25,09,00,4.20
2013,11,25,09,01,4.20
2013,11,25,09,02,4.20
2013,11,25,09,03,4.20
2013,11,25,09,04,4.20
2013,11,25,09,05,4.20
2013,11,25,09,06,4.30
2013,11,25,09,07,4.30
2013,11,25,09,08,4.30
2013,11,25,09,09,4.30
2013,11,25,09,10,4.40
2013,11,25,09,11,4.40
2013,11,25,09,12,4.40
2013,11,25,09,13,4.50
2013,11,25,09,14,4.50
2013,11,25,09,15,4.60
2013,11,25,09,16,4.60
2013,11,25,09,17,4.70
2013,11,25,09,18,4.80
2013,11,25,09,19,4.80
2013,11,25,09,20,4.90
2013,11,25,09,21,4.90
2013,11,25,09,22,5.00
2013,11,25,09,23,5.00
2013,11,25,09,24,5.10
2013,11,25,09,25,5.10
2013,11,25,09,26,5.10
2013,11,25,09,27,5.10
2013,11,25,09,28,5.20
2013,11,25,09,29,5.20
2013,11,25,09,30,5.20
2013,11,25,09,31,5.20
2013,11,25,09,32,5.20
2013,11,25,09,33,5.30
2013,11,25,09,34,5.30
2013,11,25,09,35,5.30
2013,11,25,09,36,5.30
2013,11,25,09,37,5.30
2013,11,25,09,38,5.30
2013,11,25,09,39,5.30
2013,11,25,09,40,5.30
2013,11,25,09,41,5.30
2013,11,25,09,42,5.30
2013,11,25,09,43,5.30
2013,11,25,09,44,5.40
2013,11,25,09,45,5.40
2013,11,25,09,46,5.40
2013,11,25,09,47,5.40
2013,11,25,09,48,5.40
2013,11,25,09,49,5.40
2013,11,25,09,50,5.40
2013,11,25,09,51,5.40
2013,11,25,09,52,5.40
2013,11,25,09,53,5.40
2013,11,25,09,54,5.40
2013,11,25,09,55,5.40
2013,11,25,09,56,5.40
2013,11,25,09,57,5.40
2013,11,25,09,58,5.40
2013,11,25,09,59,5.40
2013,11,25,10,00,5.40
2013,11,25,10,01,5.50
2013,11,25,10,02,5.50
2013,11,25,10,03,5.50
2013,11,25,10,04,5.50
2013,11,25,10,05,5.50
2013,11,25,10,06,5.60
2013,11,25,10,07,5.60
2013,11,25,10,08,5.60
2013,11,25,10,09,5.60
2013,11,25,10,10,5.60
2013,11,25,10,11,5.60
2013,11,25,10,12,5.60
2013,11,25,10,13,5.70
2013,11,25,10,14,5.70
2013,11,25,10,15,5.70
2013,11,25,10,16,5.70
2013,11,25,10,17,5.70
2013,11,25,10,18,5.70
2013,11,25,10,19,5.80
2013,11,25,10,20,5.80
2013,11,25,10,21,5.80
2013,11,25,10,22,5.80
2013,11,25,10,23,5.80
2013,11,25,10,24,5.80
2013,11,25,10,25,5.80
2013,11,25,10,26,5.90
2013,11,25,10,27,5.90
2013,11,25,10,28,5.90
2013,11,25,10,29,6.00
2013,11,25,10,30,6.00
2013,11,25,10,31,6.10
2013,11,25,10,32,6.10
2013,11,25,10,33,6.10
2013,11,25,10,34,6.10
2013,11,25,10,35,6.20
2013,11,25,10,36,6.20
2013,11,25,10,37,6.20
2013,11,25,10,38,6.20
2013,11,25,10,39,6.20
2013,11,25,10,40,6.30
2013,11,25,10,41,6.30
2013,11,25,10,42,6.40
2013,11,25,10,43,6.40
2013,11,25,10,44,6.50
2013,11,25,10,45,6.50
2013,11,25,10,46,6.60
2013,11,25,10,47,6.60
2013,11,25,10,48,6.70
2013,11,25,10,49,6.70
2013,11,25,10,50,6.80
2013,11,25,10,51,6.80
2013,11,25,10,52,6.90
2013,11,25,10,53,6.90
2013,11,25,10,54,7.00
2013,11,25,10,55,7.10
2013,11,25,10,56,7.10
2013,11,25,10,57,7.20
2013,11,25,10,58,7.20
2013,11,25,10,59,7.30
2013,11,25,11,00,7.30
2013,11,25,11,01,7.40
2013,11,25,11,02,7.40
2013,11,25,11,03,7.40
2013,11,25,11,04,7.40
2013,11,25,11,05,7.40
2013,11,25,11,06,7.40
2013,11,25,11,07,7.40
2013,11,25,11,08,7.50
2013,11,25,11,09,7.50
2013,11,25,11,10,7.50
2013,11,25,11,11,7.50
2013,11,25,11,12,7.60
2013,11,25,11,13,7.60
2013,11,25,11,14,7.60
2013,11,25,11,15,7.60
2013,11,25,11,16,7.70
2013,11,25,11,17,7.70
2013,11,25,11,18,7.70
2013,11,25,11,19,7.60
2013,11,25,11,20,7.60
2013,11,25,11,21,7.50
2013,11,25,11,22,7.40
2013,11,25,11,23,7.30
2013,11,25,11,24,7.30
2013,11,25,11,25,7.20
2013,11,25,11,26,7.20
2013,11,25,11,27,7.10
2013,11,25,11,28,7.10
2013,11,25,11,29,7.10
2013,11,25,11,30,7.10
2013,11,25,11,31,7.10
2013,11,25,11,32,7.10
2013,11,25,11,33,7.00
2013,11,25,11,34,7.10
2013,11,25,11,35,7.10
2013,11,25,11,36,7.10
2013,11,25,11,37,7.10
2013,11,25,11,38,7.20
2013,11,25,11,39,7.20
2013,11,25,11,40,7.30
2013,11,25,11,41,7.30
2013,11,25,11,42,7.40
2013,11,25,11,43,7.40
2013,11,25,11,44,7.50
2013,11,25,11,45,7.50
2013,11,25,11,46,7.50
2013,11,25,11,47,7.60
2013,11,25,11,48,7.60
2013,11,25,11,49,7.60
2013,11,25,11,50,7.70
2013,11,25,11,51,7.70
2013,11,25,11,52,7.70
2013,11,25,11,53,7.80
2013,11,25,11,54,7.80
2013,11,25,11,55,7.90
2013,11,25,11,56,8.00
2013,11,25,11,57,8.10
2013,11,25,11,58,8.10
2013,11,25,11,59,8.20
2013,11,25,12,00,8.30
2013,11,25,12,01,8.30
2013,11,25,12,02,8.40
2013,11,25,12,03,8.50
2013,11,25,12,04,8.60
2013,11,25,12,05,8.60
2013,11,25,12,06,8.70
2013,11,25,12,07,8.70
2013,11,25,12,08,8.70
2013,11,25,12,09,8.70
2013,11,25,12,10,8.70
2013,11,25,12,11,8.70
2013,11,25,12,12,8.70
2013,11,25,12,13,8.70
2013,11,25,12,14,8.70
2013,11,25,12,15,8.70
2013,11,25,12,16,8.70
2013,11,25,12,17,8.70
2013,11,25,12,18,8.70
2013,11,25,12,19,8.70
2013,11,25,12,20,8.70
2013,11,25,12,21,8.70
2013,11,25,12,22,8.70
2013,11,25,12,23,8.70
2013,11,25,12,24,8.70
2013,11,25,12,25,8.80
2013,11,25,12,26,8.80
2013,11,25,12,27,8.80
2013,11,25,12,28,8.80
2013,11,25,12,29,8.80
2013,11,25,12,30,8.80
2013,11,25,12,31,8.80
2013,11,25,12,32,8.80
2013,11,25,12,33,8.90
2013,11,25,12,34,8.90
2013,11,25,12,35,8.90
2013,11,25,12,36,8.90
2013,11,25,12,37,8.90
2013,11,25,12,38,9.00
2013,11,25,12,39,9.00
2013,11,25,12,40,9.00
2013,11,25,12,41,9.10
2013,11,25,12,42,9.10
2013,11,25,12,43,9.10
2013,11,25,12,44,9.10
2013,11,25,12,45,9.20
2013,11,25,12,46,9.20
2013,11,25,12,47,9.20
2013,11,25,12,48,9.20
2013,11,25,12,49,9.20
2013,11,25,12,50,9.20
2013,11,25,12,51,9.20
2013,11,25,12,52,9.20
2013,11,25,12,53,9.10
2013,11,25,12,54,9.10
2013,11,25,12,55,9.10
2013,11,25,12,56,9.10
2013,11,25,12,57,9.10
2013,11,25,12,58,9.10
2013,11,25,12,59,9.10
2013,11,25,13,00,9.10
2013,11,25,13,01,9.10
2013,11,25,13,02,9.20
2013,11,25,13,03,9.20
2013,11,25,13,04,9.20
2013,11,25,13,05,9.30
2013,11,25,13,06,9.30
2013,11,25,13,07,9.40
2013,11,25,13,08,9.40
2013,11,25,13,09,9.50
2013,11,25,13,10,9.50
2013,11,25,13,11,9.60
2013,11,25,13,12,9.60
2013,11,25,13,13,9.60
2013,11,25,13,14,9.70
2013,11,25,13,15,9.70
2013,11,25,13,16,9.70
2013,11,25,13,17,9.70
2013,11,25,13,18,9.80
2013,11,25,13,19,9.80
2013,11,25,13,20,9.80
2013,11,25,13,21,9.90
2013,11,25,13,22,9.90
2013,11,25,13,23,9.90
2013,11,25,13,24,9.90
2013,11,25,13,25,9.90
2013,11,25,13,26,9.90
2013,11,25,13,27,10.00
2013,11,25,13,28,10.00
2013,11,25,13,29,10.00
2013,11,25,13,30,10.10
2013,11,25,13,31,10.10
2013,11,25,13,32,10.10
2013,11,25,13,33,10.10
2013,11,25,13,34,10.10
2013,11,25,13,35,10.10
2013,11,25,13,36,10.10
2013,11,25,13,37,10.10
2013,11,25,13,38,10.20
2013,11,25,13,39,10.20
2013,11,25,13,40,10.20
2013,11,25,13,41,10.30
2013,11,25,13,42,10.30
2013,11,25,13,43,10.30
2013,11,25,13,44,10.40
2013,11,25,13,45,10.40
2013,11,25,13,46,10.40
2013,11,25,13,47,10.30
2013,11,25,13,48,10.30
2013,11,25,13,49,10.30
2013,11,25,13,50,10.30
2013,11,25,13,51,10.30
2013,11,25,13,52,10.30
2013,11,25,13,53,10.30
2013,11,25,13,54,10.30
2013,11,25,13,55,10.30
2013,11,25,13,56,10.30
2013,11,25,13,57,10.30
2013,11,25,13,58,10.30
2013,11,25,13,59,10.30
2013,11,25,14,00,10.30
2013,11,25,14,01,10.30
2013,11,25,14,02,10.30
2013,11,25,14,03,10.30
2013,11,25,14,04,10.20
2013,11,25,14,05,10.20
2013,11,25,14,06,10.20
2013,11,25,14,07,10.20
2013,11,25,14,08,10.20
2013,11,25,14,09,10.10
2013,11,25,14,10,10.10
2013,11,25,14,11,10.10
2013,11,25,14,12,10.10
2013,11,25,14,13,10.10
2013,11,25,14,14,10.10
2013,11,25,14,15,10.10
2013,11,25,14,16,10.10
2013,11,25,14,17,10.10
2013,11,25,14,18,10.10
2013,11,25,14,19,10.00
2013,11,25,14,20,10.00
2013,11,25,14,21,10.00
2013,11,25,14,22,9.90
2013,11,25,14,23,9.90
2013,11,25,14,24,9.90
2013,11,25,14,25,9.90
2013,11,25,14,26,9.80
2013,11,25,14,27,9.80
2013,11,25,14,28,9.80
2013,11,25,14,29,9.80
2013,11,25,14,30,9.80
2013,11,25,14,31,9.80
2013,11,25,14,32,9.80
2013,11,25,14,33,9.80
2013,11,25,14,34,9.80
2013,11,25,14,35,9.80
2013,11,25,14,36,9.70
2013,11,25,14,37,9.70
2013,11,25,14,38,9.70
2013,11,25,14,39,9.70
2013,11,25,14,40,9.70
2013,11,25,14,41,9.70
2013,11,25,14,42,9.60
2013,11,25,14,43,9.60
2013,11,25,14,44,9.60
2013,11,25,14,45,9.60
2013,11,25,14,46,9.60
2013,11,25,14,47,9.60
2013,11,25,14,48,9.50
2013,11,25,14,49,9.50
2013,11,25,14,50,9.50
2013,11,25,14,51,9.50
2013,11,25,14,52,9.50
2013,11,25,14,53,9.40
2013,11,25,14,54,9.40
2013,11,25,14,55,9.40
2013,11,25,14,56,9.40
2013,11,25,14,57,9.40
2013,11,25,14,58,9.40
2013,11,25,14,59,9.40
2013,11,25,15,00,9.40
2013,11,25,15,01,9.40
2013,11,25,15,02,9.40
2013,11,25,15,03,9.40
2013,11,25,15,04,9.40
2013,11,25,15,05,9.40
2013,11,25,15,06,9.40
2013,11,25,15,07,9.40
2013,11,25,15,08,9.50
2013,11,25,15,09,9.50
2013,11,25,15,10,9.50
2013,11,25,15,11,9.60
2013,11,25,15,12,9.60
2013,11,25,15,13,9.70
2013,11,25,15,14,9.70
2013,11,25,15,15,9.80
2013,11,25,15,16,9.80
2013,11,25,15,17,9.90
2013,11,25,15,18,9.90
2013,11,25,15,19,9.90
2013,11,25,15,20,10.00
2013,11,25,15,21,10.00
2013,11,25,15,22,10.00
2013,11,25,15,23,10.00
2013,11,25,15,24,9.90
2013,11,25,15,25,9.90
2013,11,25,15,26,9.90
2013,11,25,15,27,9.80
2013,11,25,15,28,9.80
2013,11,25,15,29,9.70
2013,11,25,15,30,9.70
2013,11,25,15,31,9.70
2013,11,25,15,32,9.70
2013,11,25,15,33,9.70
2013,11,25,15,34,9.70
2013,11,25,15,35,9.70
2013,11,25,15,36,9.70
2013,11,25,15,37,9.70
2013,11,25,15,38,9.70
2013,11,25,15,39,9.70
2013,11,25,15,40,9.60
2013,11,25,15,41,9.60
2013,11,25,15,42,9.50
2013,11,25,15,43,9.40
2013,11,25,15,44,9.30
2013,11,25,15,45,9.30
2013,11,25,15,46,9.30
2013,11,25,15,47,9.20
2013,11,25,15,48,9.20
2013,11,25,15,49,9.20
2013,11,25,15,50,9.20
2013,11,25,15,51,9.20
2013,11,25,15,52,9.20
2013,11,25,15,53,9.20
2013,11,25,15,54,9.20
2013,11,25,15,55,9.20
2013,11,25,15,56,9.10
2013,11,25,15,57,9.10
2013,11,25,15,58,9.10
2013,11,25,15,59,9.10
2013,11,25,16,00,9.10
2013,11,25,16,01,9.10
2013,11,25,16,02,9.10
2013,11,25,16,03,9.00
2013,11,25,16,04,9.00
2013,11,25,16,05,8.90
2013,11,25,16,06,8.90
2013,11,25,16,07,8.90
2013,11,25,16,08,8.80
2013,11,25,16,09,8.80
2013,11,25,16,10,8.80
2013,11,25,16,11,8.70
2013,11,25,16,12,8.70
2013,11,25,16,13,8.60
2013,11,25,16,14,8.60
2013,11,25,16,15,8.50
2013,11,25,16,16,8.40
2013,11,25,16,17,8.40
2013,11,25,16,18,8.30
2013,11,25,16,19,8.30
2013,11,25,16,20,8.30
2013,11,25,16,21,8.20
2013,11,25,16,22,8.20
2013,11,25,16,23,8.20
2013,11,25,16,24,8.10
2013,11,25,16,25,8.10
2013,11,25,16,26,8.00
2013,11,25,16,27,8.00
2013,11,25,16,28,7.90
2013,11,25,16,29,7.90
2013,11,25,16,30,7.80
2013,11,25,16,31,7.80
2013,11,25,16,32,7.80
2013,11,25,16,33,7.70
2013,11,25,16,34,7.70
2013,11,25,16,35,7.70
2013,11,25,16,36,7.60
2013,11,25,16,37,7.60
2013,11,25,16,38,7.60
2013,11,25,16,39,7.60
2013,11,25,16,40,7.50
2013,11,25,16,41,7.50
2013,11,25,16,42,7.50
2013,11,25,16,43,7.40
2013,11,25,16,44,7.40
2013,11,25,16,45,7.40
2013,11,25,16,46,7.30
2013,11,25,16,47,7.30
2013,11,25,16,48,7.30
2013,11,25,16,49,7.30
2013,11,25,16,50,7.30
2013,11,25,16,51,7.20
2013,11,25,16,52,7.20
2013,11,25,16,53,7.20
2013,11,25,16,54,7.20
2013,11,25,16,55,7.20
2013,11,25,16,56,7.10
2013,11,25,16,57,7.10
2013,11,25,16,58,7.10
2013,11,25,16,59,7.10
2013,11,25,17,00,7.10
2013,11,25,17,01,7.10
2013,11,25,17,02,7.10
2013,11,25,17,03,7.10
2013,11,25,17,04,7.10
2013,11,25,17,05,7.10
2013,11,25,17,06,7.00
2013,11,25,17,07,7.00
2013,11,25,17,08,7.00
2013,11,25,17,09,7.00
2013,11,25,17,10,6.90
2013,11,25,17,11,6.90
2013,11,25,17,12,6.90
2013,11,25,17,13,6.90
2013,11,25,17,14,6.90
2013,11,25,17,15,6.90
2013,11,25,17,16,6.90
2013,11,25,17,17,6.80
2013,11,25,17,18,6.80
2013,11,25,17,19,6.80
2013,11,25,17,20,6.80
2013,11,25,17,21,6.80
2013,11,25,17,22,6.80
2013,11,25,17,23,6.80
2013,11,25,17,24,6.80
2013,11,25,17,25,6.70
2013,11,25,17,26,6.70
2013,11,25,17,27,6.70
2013,11,25,17,28,6.70
2013,11,25,17,29,6.70
2013,11,25,17,30,6.70
2013,11,25,17,31,6.70
2013,11,25,17,32,6.60
2013,11,25,17,33,6.60
2013,11,25,17,34,6.60
2013,11,25,17,35,6.50
2013,11,25,17,36,6.50
2013,11,25,17,37,6.40
2013,11,25,17,38,6.40
2013,11,25,17,39,6.40
2013,11,25,17,40,6.40
2013,11,25,17,41,6.40
2013,11,25,17,42,6.40
2013,11,25,17,43,6.50
2013,11,25,17,44,6.50
2013,11,25,17,45,6.50
2013,11,25,17,46,6.50
2013,11,25,17,47,6.40
2013,11,25,17,48,6.40
2013,11,25,17,49,6.40
2013,11,25,17,50,6.40
2013,11,25,17,51,6.40
2013,11,25,17,52,6.40
2013,11,25,17,53,6.40
2013,11,25,17,54,6.40
2013,11,25,17,55,6.40
2013,11,25,17,56,6.40
2013,11,25,17,57,6.40
2013,11,25,17,58,6.40
2013,11,25,17,59,6.30
2013,11,25,18,00,6.30
2013,11,25,18,01,6.30
2013,11,25,18,02,6.30
2013,11,25,18,03,6.30
2013,11,25,18,04,6.30